Regional Weather Roundup
Issued by NWS

Home | Current Version | Previous Version | Graphics & Text | Print | Product List | Glossary On
Versions: 1 2 3 4 5 6 7 8 9 10 11 12 13 14 15 16 17 18 19 20 21 22 23 24 25 26 27 28 29 30 31 32 33 34 35 36 37 38 39 40 41 42 43 44 45 46 47 48 49 50
436
ASUS43 KDTX 232201
RWRMI
MICHIGAN HOURLY REGIONAL WEATHER ROUNDUP
NATIONAL WEATHER SERVICE DETROIT/PONTIAC MI
600 PM EDT MON OCT 23 2017

NOTE: "FAIR" INDICATES FEW OR NO CLOUDS BELOW 12,000 FEET WITH NO
SIGNIFICANT WEATHER AND/OR OBSTRUCTION TO VISIBILITY.

MIZ047>049-052>055-059>063-066>070-074>076-081>083-232300-
SOUTHEAST LOWER MICHIGAN

CITY           SKY/WX    TMP DP  RH WIND       PRES   REMARKS
ADRIAN         LGT RAIN  60  57  89 S15       29.51F
ALMA           HVY RAIN  54  53  96 N10       29.51F
ANN ARBOR      RAIN      62  62 100 S16G22    29.50F FOG
BAD AXE        RAIN      61  58  91 SE7       29.55F
CARO           RAIN      61  58  92 SE7       29.53F
DETROIT CITY   LGT RAIN  63  32  31 SE17G23   29.53F
DETROIT        LGT RAIN  63  62  97 SE18G28   29.52F FOG
FLINT          RAIN      61  60  97 SE13      29.50F FOG
GROSSE ILE     HVY RAIN  63  61  95 S21G30    29.53F
HILLSDALE      DRIZZLE   59  55  88 SE12G20   29.47F
HOWELL         LGT RAIN  61  60  96 SE14      29.48F

CITY           SKY/WX    TMP DP  RH WIND       PRES   REMARKS
JACKSON        LGT RAIN  62  59  90 SE9       29.47F
LAMBERTVILLE   DRIZZLE   63  60  88 S9G18     29.53F
LANSING        RAIN      61  59  93 E7        29.47F FOG
LAPEER         RAIN      61  60  96 SE8G16    29.53F
MASON          RAIN      63  61  93 SE8       29.47F
MONROE         DRIZZLE   64  60  88 S13G22    29.52F
MT. CLEMENS    LGT RAIN  62  62 100 SE18      29.52F FOG
PONTIAC        RAIN      61  61 100 SE16G22   29.50F FOG
PORT HOPE        N/A     61  58  90 SE18G25   29.55F
PORT HURON     LGT RAIN  64  61  88 SE10G18   29.56F
TRI CITIES     RAIN      60  60 100 NE9       29.52F VSB 3/4
MIDLAND        RAIN      55  55  99 N7        29.54F
TROY           LGT RAIN  63  61  95 SE9G17    29.54F
SAGINAW HB     RAIN      61  59  94 E7        29.51F
$$
MIZ043>046-050>051-056>058-064>065-071>073-077>080-232300-
SOUTHWEST LOWER MICHIGAN

CITY           SKY/WX    TMP DP  RH WIND       PRES   REMARKS
BATTLE CREEK   HVY RAIN  56  55  97 NW12      29.49F FOG
BENTON HARBOR  RAIN      55  52  89 NW12G22   29.60S FOG
BIG RAPIDS     LGT SNOW  50  48  93 N12       29.57F
COLDWATER      RAIN      60  60 100 CALM      29.44F
FREMONT        LGT RAIN  51  51 100 N7        29.59F
HOLLAND        LGT RAIN  53  50  89 N8        29.59F
GRAND RAPIDS   RAIN      52  52 100 NW14      29.54F FOG
IONIA          HVY RAIN  53  52  99 N8        29.49F
KALAMAZOO      RAIN      53  50  89 NW16G26   29.52F FOG
LUDINGTON      RAIN      50  49  96 N5        29.63S
MARSHALL       LGT RAIN  61  60  98 S5        29.45F
MOUNT PLEASANT HVY RAIN  54  52  94 N7        29.53F
MUSKEGON       RAIN      53  51  93 N12       29.61S FOG
SOUTH HAVEN    RAIN      55  54  94 NW12G20   29.59S
$$
MIZ016>042-232300-
NORTHERN LOWER MICHIGAN

CITY           SKY/WX    TMP DP  RH WIND       PRES   REMARKS
ALPENA         RAIN      53  53 100 N13       29.62F FOG
BEAVER ISLAND  CLOUDY    52  49  89 NE5       29.70S
BELLAIRE       LGT RAIN  50  49  94 N5        29.67F
CADILLAC       RAIN      49  48  99 N9        29.60F
CHARLEVOIX     RAIN      51  51 100 E5        29.71F
FRANKFORT      LGT RAIN  53  51  94 NE7       29.65F
GAYLORD        LGT RAIN  47  45  93 N6        29.65F FOG
GRAYLING       RAIN      49  48  94 N13       29.60F
HARBOR SPRINGS RAIN      48  47  95 CALM      29.69F
HOUGHTON LAKE  HVY RAIN  50  48  93 N8        29.62R FOG
MANISTEE       RAIN      51  50  96 NW5       29.64F
OSCODA         HVY RAIN  55  55  97 N7        29.57F
PELLSTON       LGT RAIN  50  49  96 N5        29.69F
ROGERS CITY    RAIN      52  51  97 N8        29.66F
TRAVERSE CITY  RAIN      52  50  93 NE9       29.64F FOG
$$
MIZ007>008-015-232300-
EASTERN UPPER MICHIGAN

CITY           SKY/WX    TMP DP  RH WIND       PRES   REMARKS
KINROSS        LGT RAIN  50  49  96 N6        29.70F
MACKINAC ISLAN LGT RAIN  50  50 100 N8        29.69F
NEWBERRY       MOCLDY    49  49  97 E5        29.70F
S. S. MARIE    RAIN      52  49  89 N5        29.70F FOG
MUNISING         N/A     53  46  77 CALM      29.69F
$$
MIZ004>006-011>014-085-232300-
CENTRAL UPPER MICHIGAN

CITY           SKY/WX    TMP DP  RH WIND       PRES   REMARKS
MANISTIQUE     CLOUDY    50  44  80 CALM      29.69F
ESCANABA       CLOUDY    51  46  83 CALM      29.69F
MENOMINEE      CLOUDY    51  47  86 NE3       29.68F
SAWYER-GWINN   CLEAR     50  43  76 S5        29.69F
$$
MIZ001>003-009>011-084-232300-
WESTERN UPPER MICHIGAN

CITY           SKY/WX    TMP DP  RH WIND       PRES   REMARKS
IRON MOUNTAIN  CLOUDY    51  39  63 SE3       29.67F
HOUGHTON       CLOUDY    56  39  53 N8        29.66F
COPPER HARBOR    N/A     56  45  66 SW8       29.67S
IRONWOOD       CLOUDY    57  42  57 CALM      29.68S
$$

ABBREVIATIONS USED IN REMARKS
   TC - TEMPERATURE IN CELSIUS
  WCI - WIND CHILL INDEX
   HX - HEAT INDEX
  VSB - VISIBILITY





USA.gov is the U.S. government's official web portal to all federal, state and local government web resources and services.